�N����,����,�~����,�C��,���x,�C��,����,���ϕ���,�ő�u�ԕ���,�ő厞����,���˗�,�I�_���x,�n�����x,�ő啗���N��,DTYPE
"17/07/16","00:10",0.0,25.3,85.9,1006.9,340.7,1.1,1.7,339.1,0.00,22.8,26.7,"00:02:56",1
"17/07/16","00:20",0.0,25.1,86.5,1006.9,325.4,1.0,1.6,326.1,0.00,22.7,26.5,"00:13:44",1
"17/07/16","00:30",0.0,25.0,87.0,1006.9,328.1,1.1,2.0,352.1,0.00,22.7,26.6,"00:28:00",1
"17/07/16","00:40",0.0,24.9,87.2,1007.4,301.9,0.8,1.9,319.8,0.00,22.7,26.5,"00:34:16",1
"17/07/16","00:50",0.0,25.0,87.3,1007.1,323.4,1.5,2.8,330.2,0.00,22.8,26.4,"00:49:52",1
"17/07/16","01:00",0.0,25.0,87.0,1006.7,309.9,1.2,2.2,343.6,0.00,22.7,26.2,"00:58:16",1
"17/07/16","01:10",0.0,25.1,86.8,1006.9,318.5,1.5,2.8,345.4,0.00,22.8,26.5,"01:06:06",1
"17/07/16","01:20",0.0,25.1,86.6,1006.9,317.8,1.6,3.1,338.1,0.00,22.7,26.5,"01:13:44",1
"17/07/16","01:30",0.0,25.0,86.5,1006.9,318.0,1.2,2.7,340.3,0.00,22.6,26.4,"01:21:04",1
"17/07/16","01:40",0.0,24.9,86.6,1006.9,331.2,1.5,2.5,331.6,0.00,22.6,26.3,"01:34:56",1
"17/07/16","01:50",0.0,24.9,86.7,1006.9,332.4,1.0,1.7,335.9,0.00,22.6,26.4,"01:47:52",1
"17/07/16","02:00",0.0,24.8,86.8,1006.4,334.8,0.6,1.3,16.5,0.00,22.5,26.3,"01:53:04",1
"17/07/16","02:10",0.0,24.5,87.3,1006.4,294.3,0.8,1.2,267.5,0.00,22.3,26.3,"02:03:52",1
"17/07/16","02:20",0.0,24.2,88.1,1006.7,302.5,0.6,1.0,333.8,0.00,22.1,26.1,"02:10:02",1
"17/07/16","02:30",0.0,24.1,88.8,1006.9,322.4,0.7,1.1,327.9,0.00,22.2,26.1,"02:22:16",1
"17/07/16","02:40",0.0,24.0,89.2,1006.7,300.1,0.8,1.6,316.5,0.00,22.2,26.4,"02:36:00",1
"17/07/16","02:50",0.0,24.0,89.3,1006.9,288.6,0.8,1.4,320.0,0.00,22.2,26.2,"02:49:44",1
"17/07/16","03:00",0.0,24.0,89.3,1006.7,310.1,1.0,1.7,331.0,0.00,22.2,26.2,"02:55:52",1
"17/07/16","03:10",0.0,24.0,89.2,1006.9,308.1,1.1,2.1,338.1,0.00,22.2,26.0,"03:05:12",1
"17/07/16","03:20",0.0,24.1,89.1,1006.9,315.3,1.3,2.1,337.8,0.00,22.2,25.7,"03:16:40",1
"17/07/16","03:30",0.0,24.1,88.6,1006.9,281.5,0.7,1.3,320.3,0.00,22.1,25.9,"03:20:08",1
"17/07/16","03:40",0.0,24.1,88.6,1006.9,329.1,1.1,1.8,329.3,0.00,22.1,25.8,"03:33:04",1
"17/07/16","03:50",0.0,24.0,88.6,1007.1,298.9,0.7,1.2,322.5,0.00,22.0,25.7,"03:40:08",1
"17/07/16","04:00",0.0,23.8,89.0,1006.9,310.0,0.8,1.3,313.6,0.00,21.9,25.9,"03:54:48",1
"17/07/16","04:10",0.0,23.7,89.5,1007.1,233.6,0.2,1.0,314.8,0.00,21.9,25.7,"04:01:28",1
"17/07/16","04:20",0.0,23.6,89.8,1006.7,288.4,0.7,2.1,317.5,0.00,21.9,25.7,"04:12:00",1
"17/07/16","04:30",0.0,23.5,90.2,1006.7,285.5,0.8,1.7,337.1,0.00,21.8,25.8,"04:26:16",1
"17/07/16","04:40",0.0,23.5,90.2,1007.1,264.9,0.6,0.9,248.9,0.00,21.8,25.5,"04:34:24",1
"17/07/16","04:50",0.0,23.3,90.5,1007.1,284.1,0.8,1.1,305.1,0.00,21.7,25.8,"04:41:44",1
"17/07/16","05:00",0.0,23.3,91.2,1007.4,313.9,1.3,2.1,323.8,0.00,21.8,25.4,"04:56:48",1
"17/07/16","05:10",0.0,23.4,91.2,1006.9,322.4,1.2,1.9,354.2,0.00,21.9,25.6,"05:00:48",1
"17/07/16","05:20",0.0,23.3,91.2,1006.9,305.2,1.0,1.2,318.4,0.00,21.8,25.6,"05:16:08",1
"17/07/16","05:30",0.0,23.2,91.5,1007.4,283.7,0.8,1.3,319.9,0.00,21.8,25.6,"05:21:28",1
"17/07/16","05:40",0.0,23.3,91.5,1007.4,283.8,1.0,1.3,289.4,0.00,21.9,25.4,"05:31:12",1
"17/07/16","05:50",0.0,23.5,91.3,1007.6,279.2,1.0,1.2,300.7,0.00,22.0,25.2,"05:41:04",1
"17/07/16","06:00",0.0,23.8,90.9,1007.6,271.4,0.6,1.2,270.3,0.01,22.3,25.5,"05:51:04",1
"17/07/16","06:10",0.0,24.0,91.0,1007.4,315.9,0.8,1.4,330.6,0.02,22.5,25.5,"06:06:32",1
"17/07/16","06:20",0.0,24.4,90.6,1007.6,338.8,1.0,1.4,342.9,0.02,22.8,25.4,"06:14:48",1
"17/07/16","06:30",0.0,24.5,90.3,1007.6,339.7,1.3,2.5,336.5,0.03,22.8,25.2,"06:27:20",1
"17/07/16","06:40",0.0,24.8,89.6,1007.4,311.2,1.1,2.4,312.9,0.04,23.0,25.4,"06:32:08",1
"17/07/16","06:50",0.0,25.0,88.6,1007.6,263.5,0.5,1.6,241.3,0.04,23.0,25.5,"06:41:20",1
"17/07/16","07:00",0.0,25.4,87.6,1007.6,303.5,0.5,1.2,345.8,0.04,23.2,25.7,"06:50:32",1
"17/07/16","07:10",0.0,25.7,86.5,1007.8,293.5,0.6,0.9,237.3,0.05,23.3,25.5,"07:08:40",1
"17/07/16","07:20",0.0,25.9,85.7,1008.1,313.2,0.7,1.3,322.2,0.05,23.4,25.5,"07:18:00",1
"17/07/16","07:30",0.0,26.5,84.6,1008.1,314.4,0.5,1.2,329.3,0.09,23.7,25.4,"07:21:04",1
"17/07/16","07:40",0.0,26.9,81.7,1007.8,240.4,0.3,1.1,225.5,0.06,23.5,25.7,"07:37:20",1
"17/07/16","07:50",0.0,26.9,82.6,1008.1,310.6,0.0,0.3,331.8,0.03,23.7,25.8,"07:40:24",1
"17/07/16","08:00",0.0,27.0,81.9,1007.8,155.4,0.0,0.3,208.0,0.06,23.7,25.8,"07:55:28",1
"17/07/16","08:10",0.0,27.2,82.3,1007.4,191.4,0.3,0.6,173.1,0.10,24.0,25.7,"08:02:48",1
"17/07/16","08:20",0.0,28.0,79.2,1007.1,188.5,0.7,1.2,143.7,0.18,24.1,26.1,"08:19:12",1
"17/07/16","08:30",0.0,28.8,77.1,1006.4,169.3,0.8,1.8,226.8,0.23,24.4,26.1,"08:24:32",1
"17/07/16","08:40",0.0,29.3,75.4,1007.1,160.2,0.7,1.7,142.1,0.23,24.5,26.0,"08:36:56",1
"17/07/16","08:50",0.0,29.0,73.6,1007.4,103.8,0.7,1.7,125.6,0.20,23.8,26.1,"08:44:32",1
"17/07/16","09:00",0.0,29.9,74.3,1007.4,90.6,0.5,1.3,25.1,0.24,24.9,26.3,"08:55:44",1
"17/07/16","09:10",0.0,29.4,71.9,1007.8,58.9,0.8,1.8,16.8,0.18,23.8,26.4,"09:07:28",1
"17/07/16","09:20",0.0,29.6,74.8,1007.8,352.3,0.6,1.6,351.9,0.19,24.7,26.4,"09:13:44",1
"17/07/16","09:30",0.0,30.8,72.2,1007.6,144.3,0.5,1.3,172.3,0.28,25.3,26.5,"09:23:44",1
"17/07/16","09:40",0.0,30.4,70.4,1007.8,86.4,0.7,1.6,30.7,0.22,24.4,26.7,"09:33:52",1
"17/07/16","09:50",0.0,30.5,70.2,1008.3,166.5,0.7,2.7,196.2,0.23,24.5,26.9,"09:40:02",1
"17/07/16","10:00",0.0,30.9,70.0,1007.8,171.9,1.1,2.8,216.6,0.35,24.8,26.9,"09:50:08",1
"17/07/16","10:10",0.0,31.0,70.4,1008.3,152.6,1.5,3.1,168.8,0.40,25.0,27.1,"10:03:28",1
"17/07/16","10:20",0.0,31.3,68.9,1008.6,151.1,1.1,2.4,157.3,0.34,24.9,27.2,"10:15:44",1
"17/07/16","10:30",0.0,31.5,67.4,1008.6,151.6,1.5,2.7,155.1,0.43,24.8,27.4,"10:22:32",1
"17/07/16","10:40",0.0,31.9,64.8,1008.6,160.4,1.1,3.3,203.5,0.44,24.5,27.7,"10:36:48",1
"17/07/16","10:50",0.0,31.9,69.3,1008.6,188.7,0.8,2.0,214.1,0.31,25.6,27.8,"10:46:24",1
"17/07/16","11:00",0.0,32.7,63.2,1008.6,146.7,1.0,2.7,224.2,0.45,24.8,27.9,"10:51:36",1
"17/07/16","11:10",0.0,32.2,64.0,1008.8,338.9,1.0,3.2,347.7,0.36,24.6,28.1,"11:04:24",1
"17/07/16","11:20",0.0,32.3,64.7,1008.8,287.9,1.1,2.7,324.2,0.41,24.8,28.2,"11:12:16",1
"17/07/16","11:30",0.0,32.3,63.3,1008.6,266.8,0.8,2.9,227.5,0.35,24.5,28.5,"11:22:40",1
"17/07/16","11:40",0.0,32.3,63.2,1008.3,217.8,1.5,3.2,212.9,0.42,24.4,28.4,"11:35:44",1
"17/07/16","11:50",0.0,32.7,61.4,1008.1,264.2,0.8,3.9,345.3,0.34,24.3,28.7,"11:49:04",1
"17/07/16","12:00",0.0,32.8,61.4,1008.3,239.2,1.8,4.9,220.3,0.54,24.4,29.0,"11:56:00",1
"17/07/16","12:10",0.0,33.3,58.9,1008.3,220.8,1.6,4.0,222.5,0.54,24.2,29.0,"12:00:24",1
"17/07/16","12:20",0.0,33.1,60.2,1007.6,245.8,1.7,4.7,222.5,0.49,24.4,29.0,"12:19:44",1
"17/07/16","12:30",0.0,33.7,59.1,1007.8,209.2,2.0,4.0,200.2,0.57,24.6,29.5,"12:28:00",1
"17/07/16","12:40",0.0,34.1,59.1,1007.8,208.3,1.5,3.5,207.3,0.57,25.0,29.7,"12:34:40",1
"17/07/16","12:50",0.0,34.4,56.1,1007.8,193.0,1.7,3.6,215.0,0.61,24.4,29.8,"12:42:40",1
"17/07/16","13:00",0.0,33.6,55.5,1008.1,154.7,1.5,3.9,219.3,0.44,23.5,30.0,"12:55:20",1
"17/07/16","13:10",0.0,33.4,59.3,1007.8,179.8,0.7,1.4,198.5,0.23,24.4,29.8,"13:07:20",1
"17/07/16","13:20",0.0,34.9,50.3,1007.6,236.7,1.1,2.7,216.7,0.61,23.1,29.7,"13:12:56",1
"17/07/16","13:30",0.0,34.6,50.9,1007.4,243.1,1.7,3.4,223.6,0.56,23.0,30.0,"13:29:28",1
"17/07/16","13:40",0.0,34.7,51.8,1007.4,228.8,1.2,2.9,253.4,0.47,23.4,30.1,"13:30:16",1
"17/07/16","13:50",0.0,35.0,55.1,1007.4,195.8,1.3,3.9,222.2,0.53,24.7,30.1,"13:48:48",1
"17/07/16","14:00",0.0,35.5,52.2,1007.4,188.2,1.3,3.3,221.8,0.57,24.2,30.1,"13:51:28",1
"17/07/16","14:10",0.0,35.8,51.7,1007.8,253.1,1.1,3.2,226.8,0.56,24.3,30.2,"14:03:44",1
"17/07/16","14:20",0.0,35.0,52.4,1007.6,280.5,0.7,1.9,348.6,0.41,23.8,30.2,"14:15:36",1
"17/07/16","14:30",0.0,33.3,57.5,1007.1,231.1,1.3,3.9,221.2,0.14,23.8,30.4,"14:28:40",1
"17/07/16","14:40",0.0,33.5,57.8,1006.7,228.7,1.7,5.7,204.5,0.21,24.1,30.2,"14:38:00",1
"17/07/16","14:50",0.0,32.6,59.5,1006.2,225.5,1.6,3.9,217.4,0.11,23.7,30.1,"14:49:44",1
"17/07/16","15:00",0.0,32.4,61.5,1005.7,220.0,1.3,2.5,284.5,0.10,24.1,30.2,"14:52:00",1
"17/07/16","15:10",0.0,32.4,61.4,1005.5,255.2,1.1,2.8,232.5,0.06,24.1,30.0,"15:02:08",1
"17/07/16","15:20",0.0,31.2,59.6,1005.5,341.1,2.5,7.2,357.1,0.01,22.4,30.0,"15:16:56",1
"17/07/16","15:30",0.0,28.3,67.5,1004.8,357.1,3.6,7.1,338.8,0.02,21.7,29.5,"15:23:44",1
"17/07/16","15:40",0.0,27.4,71.8,1004.1,341.0,3.0,5.8,342.2,0.01,21.9,29.5,"15:37:52",1
"17/07/16","15:50",0.0,26.4,78.7,1004.8,353.5,2.2,4.4,345.3,0.00,22.4,29.2,"15:41:28",1
"17/07/16","16:00",0.0,25.4,84.1,1004.8,338.9,2.1,4.4,335.3,0.02,22.6,29.1,"15:51:36",1
"17/07/16","16:10",0.0,25.5,87.5,1005.0,274.8,1.2,2.4,320.7,0.10,23.3,28.8,"16:02:48",1
"17/07/16","16:20",0.0,25.6,86.6,1005.5,260.0,1.1,2.0,225.9,0.05,23.2,28.8,"16:16:24",1
"17/07/16","16:30",0.0,25.3,87.2,1005.2,303.5,1.0,2.1,348.8,0.02,23.1,28.4,"16:29:04",1
"17/07/16","16:40",0.0,25.2,87.5,1006.0,280.7,0.6,1.9,345.0,0.00,23.0,28.5,"16:31:52",1
"17/07/16","16:50",0.0,25.0,88.3,1006.2,291.1,1.0,1.7,308.4,0.00,23.0,28.4,"16:47:12",1
"17/07/16","17:00",0.0,24.9,88.9,1005.7,338.3,1.1,3.1,330.4,0.00,23.0,28.2,"16:50:56",1
"17/07/16","17:10",0.0,25.0,89.7,1006.0,347.7,1.5,2.6,351.4,0.01,23.2,28.2,"17:02:08",1
"17/07/16","17:20",0.0,25.0,89.9,1006.2,319.1,1.5,2.7,323.0,0.01,23.3,28.1,"17:11:28",1
"17/07/16","17:30",0.0,25.2,90.4,1005.5,295.6,0.6,1.9,338.5,0.03,23.6,28.0,"17:25:12",1
"17/07/16","17:40",0.0,25.4,89.5,1005.7,327.7,1.5,2.7,342.0,0.05,23.6,27.8,"17:35:20",1
"17/07/16","17:50",0.0,25.4,89.6,1005.7,307.3,1.1,2.5,345.4,0.05,23.6,27.8,"17:48:32",1
"17/07/16","18:00",0.0,25.5,89.8,1005.7,320.0,1.1,1.9,347.0,0.04,23.7,27.8,"17:53:20",1
"17/07/16","18:10",0.0,25.5,90.1,1005.7,287.5,0.8,1.6,322.2,0.03,23.8,27.7,"18:01:28",1
"17/07/16","18:20",0.0,25.5,90.1,1006.2,284.2,0.6,1.2,333.5,0.02,23.8,27.8,"18:15:04",1
"17/07/16","18:30",0.0,25.4,90.2,1006.0,273.2,0.6,1.2,264.2,0.00,23.7,27.5,"18:21:44",1
"17/07/16","18:40",0.0,25.3,90.6,1006.2,302.4,1.3,3.3,337.2,0.00,23.7,27.6,"18:37:36",1
"17/07/16","18:50",0.0,25.2,90.4,1006.0,335.7,1.3,2.7,333.8,0.00,23.6,27.6,"18:45:12",1
"17/07/16","19:00",0.0,25.4,90.1,1005.7,300.8,1.1,2.0,338.6,0.05,23.7,27.6,"18:56:48",1
"17/07/16","19:10",0.0,25.6,89.9,1006.2,337.2,1.6,2.9,325.0,0.06,23.9,27.6,"19:00:16",1
"17/07/16","19:20",0.0,25.3,89.8,1006.2,337.7,2.0,3.6,344.3,0.01,23.5,27.5,"19:10:32",1
"17/07/16","19:30",0.0,25.2,90.2,1006.0,339.9,1.6,3.4,334.8,0.00,23.5,27.4,"19:22:24",1
"17/07/16","19:40",0.0,25.0,90.6,1006.4,339.6,1.2,2.5,337.6,0.00,23.4,27.3,"19:34:48",1
"17/07/16","19:50",0.0,24.9,90.9,1006.0,343.0,1.2,2.7,328.3,0.00,23.4,27.3,"19:45:04",1
"17/07/16","20:00",0.0,24.8,91.2,1006.0,331.5,1.3,2.5,337.5,0.00,23.3,27.1,"19:52:08",1
"17/07/16","20:10",0.0,24.8,91.5,1005.7,291.6,1.1,2.4,329.9,0.00,23.4,27.2,"20:05:04",1
"17/07/16","20:20",0.0,24.6,91.7,1005.7,283.8,0.7,2.0,255.8,0.00,23.2,27.1,"20:12:24",1
"17/07/16","20:30",0.0,24.6,92.1,1006.0,298.0,1.0,1.8,336.1,0.00,23.3,27.1,"20:24:24",1
"17/07/16","20:40",0.0,24.6,92.4,1006.0,328.0,1.0,2.4,345.5,0.00,23.3,27.0,"20:38:32",1
"17/07/16","20:50",0.0,24.5,92.4,1006.0,315.5,1.2,2.5,343.9,0.00,23.2,26.9,"20:43:20",1
"17/07/16","21:00",0.0,24.5,92.5,1006.0,327.6,1.7,2.9,335.6,0.00,23.2,26.7,"20:59:04",1
"17/07/16","21:10",0.0,24.5,92.5,1006.2,330.6,2.0,3.4,333.5,0.00,23.2,26.7,"21:00:24",1
"17/07/16","21:20",0.0,24.5,92.5,1006.4,336.7,2.2,4.3,341.7,0.00,23.2,26.7,"21:13:04",1
"17/07/16","21:30",0.0,24.5,92.4,1006.2,338.3,1.5,2.6,333.6,0.00,23.2,26.7,"21:25:20",1
"17/07/16","21:40",0.0,24.4,92.4,1006.0,329.5,2.1,3.2,335.7,0.00,23.1,26.5,"21:30:16",1
"17/07/16","21:50",0.0,24.4,92.3,1006.2,322.4,1.6,3.2,343.6,0.00,23.1,26.3,"21:41:20",1
"17/07/16","22:00",0.0,24.3,92.4,1006.2,305.0,1.0,2.0,340.6,0.00,23.0,26.5,"21:58:16",1
"17/07/16","22:10",0.0,24.2,92.7,1006.2,288.3,0.6,1.2,329.3,0.00,23.0,26.4,"22:00:24",1
"17/07/16","22:20",0.0,24.2,92.8,1006.0,316.2,1.1,2.5,341.8,0.00,23.0,26.3,"22:14:56",1
"17/07/16","22:30",0.0,24.2,93.0,1006.2,321.1,1.1,2.1,334.2,0.00,23.0,26.4,"22:25:44",1
"17/07/16","22:40",0.0,24.1,93.0,1006.0,274.9,0.6,1.3,322.8,0.00,22.9,26.4,"22:36:16",1
"17/07/16","22:50",0.0,24.0,93.2,1005.7,306.2,1.1,2.0,327.3,0.00,22.9,26.3,"22:47:44",1
"17/07/16","23:00",0.0,24.0,93.2,1005.7,283.5,0.7,1.3,328.2,0.00,22.9,26.1,"22:53:44",1
"17/07/16","23:10",0.0,24.0,93.4,1005.7,326.7,1.3,2.4,319.8,0.00,22.9,26.3,"23:07:12",1
"17/07/16","23:20",0.0,24.1,93.5,1005.7,334.4,1.0,2.4,338.3,0.00,23.0,26.3,"23:11:04",1
"17/07/16","23:30",0.0,24.1,93.3,1005.7,279.8,0.7,1.4,338.7,0.00,23.0,26.1,"23:26:32",1
"17/07/16","23:40",0.0,24.0,93.5,1005.7,304.1,0.8,1.6,322.6,0.00,22.9,26.1,"23:32:08",1
"17/07/16","23:50",0.0,24.0,93.6,1005.5,330.5,0.3,0.8,329.5,0.00,22.9,26.2,"23:40:48",1
"17/07/16","24:00",0.0,23.9,93.7,1005.5,309.4,0.8,1.1,325.1,0.00,22.9,26.1,"23:50:16",1
